date,time,press
2013-01-01,00:00,1081.03
2013-01-01,01:00,1068.01
2013-01-01,02:00,1024.6
2013-01-01,03:00,1068.01
2013-01-01,04:00,1060.41
2013-01-01,05:00,1108.15
2013-01-01,06:00,1071.26
2013-01-01,07:00,1070.18
2013-01-01,08:00,943.22
2013-01-01,09:00,862.93
2013-01-01,10:00,-999
2013-01-01,11:00,-999
2013-01-01,12:00,-999
2013-01-01,13:00,-999
2013-01-01,14:00,-999
2013-01-01,15:00,-999
2013-01-01,16:00,-999
2013-01-01,17:00,-999
2013-01-01,18:00,1031.11
2013-01-01,19:00,1103.81
2013-01-01,20:00,1113.58
2013-01-01,21:00,1125.52
2013-01-01,22:00,1098.39
2013-01-01,23:00,1160.24
2013-01-02,00:00,1161.32
2013-01-02,01:00,1165.66
2013-01-02,02:00,1190.62
2013-01-02,03:00,1198.21
2013-01-02,04:00,1191.7
2013-01-02,05:00,1199.3
2013-01-02,06:00,1200.39
2013-01-02,07:00,1202.56
2013-01-02,08:00,1151.56
2013-01-02,09:00,1040.88
2013-01-02,10:00,-999
2013-01-02,11:00,-999
2013-01-02,12:00,-999
2013-01-02,13:00,-999
2013-01-02,14:00,-999
2013-01-02,15:00,-999
2013-01-02,16:00,-999
2013-01-02,17:00,-999
2013-01-02,18:00,918.27
2013-01-02,19:00,1034.37
2013-01-02,20:00,1174.34
2013-01-02,21:00,1167.83
2013-01-02,22:00,1192.79
2013-01-02,23:00,1196.04
2013-01-03,00:00,1196.04
2013-01-03,01:00,1114.66
2013-01-03,02:00,1179.77
2013-01-03,03:00,1190.62
2013-01-03,04:00,1199.3
2013-01-03,05:00,1187.36
2013-01-03,06:00,1199.3
2013-01-03,07:00,1196.04
2013-01-03,08:00,1183.02
2013-01-03,09:00,1122.26
2013-01-03,10:00,1046.31
2013-01-03,11:00,-999
2013-01-03,12:00,-999
2013-01-03,13:00,-999
2013-01-03,14:00,-999
2013-01-03,15:00,-999
2013-01-03,16:00,-999
2013-01-03,17:00,-999
2013-01-03,18:00,1028.94
2013-01-03,19:00,1130.94
2013-01-03,20:00,1187.36
2013-01-03,21:00,1158.07
2013-01-03,22:00,1166.75
2013-01-03,23:00,1205.81
2013-01-04,00:00,1210.15
2013-01-04,01:00,1210.15
2013-01-04,02:00,1202.56
2013-01-04,03:00,1204.73
2013-01-04,04:00,1197.13
2013-01-04,05:00,1116.83
2013-01-04,06:00,1160.24
2013-01-04,07:00,1173.26
2013-01-04,08:00,1168.92
2013-01-04,09:00,1121.18
2013-01-04,10:00,896.57
2013-01-04,11:00,-999
2013-01-04,12:00,-999
2013-01-04,13:00,-999
2013-01-04,14:00,-999
2013-01-04,15:00,-999
2013-01-04,16:00,-999
2013-01-04,17:00,-999
2013-01-04,18:00,-999
2013-01-04,19:00,1062.58
2013-01-04,20:00,1132.03
2013-01-04,21:00,1068.01
2013-01-04,22:00,1122.26
2013-01-04,23:00,1130.94
2013-01-05,00:00,1089.71
2013-01-05,01:00,1179.77
2013-01-05,02:00,1203.64
2013-01-05,03:00,1200.39
2013-01-05,04:00,1191.7
2013-01-05,05:00,1200.39
2013-01-05,06:00,1188.45
2013-01-05,07:00,1181.94
2013-01-05,08:00,1158.07
2013-01-05,09:00,1059.33
2013-01-05,10:00,966.01
2013-01-05,11:00,-999
2013-01-05,12:00,-999
2013-01-05,13:00,-999
2013-01-05,14:00,-999
2013-01-05,15:00,-999
2013-01-05,16:00,-999
2013-01-05,17:00,-999
2013-01-05,18:00,-999
2013-01-05,19:00,1089.71
2013-01-05,20:00,1152.64
2013-01-05,21:00,1179.77
2013-01-05,22:00,1177.6
2013-01-05,23:00,1187.36
2013-01-06,00:00,1205.81
2013-01-06,01:00,1209.07
2013-01-06,02:00,1187.36
2013-01-06,03:00,1187.36
2013-01-06,04:00,1168.92
2013-01-06,05:00,1160.24
2013-01-06,06:00,1146.13
2013-01-06,07:00,1154.81
2013-01-06,08:00,1108.15
2013-01-06,09:00,-999
2013-01-06,10:00,886.8
2013-01-06,11:00,-999
2013-01-06,12:00,-999
2013-01-06,13:00,-999
2013-01-06,14:00,-999
2013-01-06,15:00,-999
2013-01-06,16:00,-999
2013-01-06,17:00,-999
2013-01-06,18:00,-999
2013-01-06,19:00,1076.69
2013-01-06,20:00,1165.66
2013-01-06,21:00,1149.39
2013-01-06,22:00,1146.13
2013-01-06,23:00,1174.34
2013-01-07,00:00,1188.45
2013-01-07,01:00,1174.34
2013-01-07,02:00,1202.56
2013-01-07,03:00,1187.36
2013-01-07,04:00,1207.98
2013-01-07,05:00,1199.3
2013-01-07,06:00,1190.62
2013-01-07,07:00,1180.85
2013-01-07,08:00,1103.81
2013-01-07,09:00,1043.05
2013-01-07,10:00,964.93
2013-01-07,11:00,-999
2013-01-07,12:00,-999
2013-01-07,13:00,-999
2013-01-07,14:00,-999
2013-01-07,15:00,-999
2013-01-07,16:00,-999
2013-01-07,17:00,-999
2013-01-07,18:00,920.44
2013-01-07,19:00,992.05
2013-01-07,20:00,1104.9
2013-01-07,21:00,1190.62
2013-01-07,22:00,1161.32
2013-01-07,23:00,1152.64
2013-01-08,00:00,1189.53
2013-01-08,01:00,1204.73
2013-01-08,02:00,1172.17
2013-01-08,03:00,1170
2013-01-08,04:00,1193.87
2013-01-08,05:00,1200.39
2013-01-08,06:00,1204.73
2013-01-08,07:00,1206.9
2013-01-08,08:00,1187.36
2013-01-08,09:00,1082.11
2013-01-08,10:00,-999
2013-01-08,11:00,-999
2013-01-08,12:00,-999
2013-01-08,13:00,-999
2013-01-08,14:00,-999
2013-01-08,15:00,-999
2013-01-08,16:00,-999
2013-01-08,17:00,-999
2013-01-08,18:00,-999
2013-01-08,19:00,1031.11
2013-01-08,20:00,1148.3
2013-01-08,21:00,1158.07
2013-01-08,22:00,1199.3
2013-01-08,23:00,1184.11
2013-01-09,00:00,1192.79
2013-01-09,01:00,1200.39
2013-01-09,02:00,1180.85
2013-01-09,03:00,1185.19
2013-01-09,04:00,1194.96
2013-01-09,05:00,1197.13
2013-01-09,06:00,1180.85
2013-01-09,07:00,1193.87
2013-01-09,08:00,1174.34
2013-01-09,09:00,1155.9
2013-01-09,10:00,857.5
2013-01-09,11:00,-999
2013-01-09,12:00,-999
2013-01-09,13:00,-999
2013-01-09,14:00,-999
2013-01-09,15:00,-999
2013-01-09,16:00,-999
2013-01-09,17:00,-999
2013-01-09,18:00,930.2
2013-01-09,19:00,1082.11
2013-01-09,20:00,1137.45
2013-01-09,21:00,1190.62
2013-01-09,22:00,1174.34
2013-01-09,23:00,1205.81
2013-01-10,00:00,1206.9
2013-01-10,01:00,1166.75
2013-01-10,02:00,1120.09
2013-01-10,03:00,1175.43
2013-01-10,04:00,1188.45
2013-01-10,05:00,1079.94
2013-01-10,06:00,1145.05
2013-01-10,07:00,1186.28
2013-01-10,08:00,1172.17
2013-01-10,09:00,1108.15
2013-01-10,10:00,985.54
2013-01-10,11:00,988.8
2013-01-10,12:00,1015.92
2013-01-10,13:00,-999
2013-01-10,14:00,-999
2013-01-10,15:00,-999
2013-01-10,16:00,-999
2013-01-10,17:00,-999
2013-01-10,18:00,950.82
2013-01-10,19:00,1132.03
2013-01-10,20:00,1124.43
2013-01-10,21:00,1137.45
2013-01-10,22:00,1137.45
2013-01-10,23:00,1193.87
2013-01-11,00:00,1198.21
2013-01-11,01:00,1197.13
2013-01-11,02:00,1202.56
2013-01-11,03:00,1192.79
2013-01-11,04:00,1188.45
2013-01-11,05:00,1193.87
2013-01-11,06:00,1193.87
2013-01-11,07:00,1198.21
2013-01-11,08:00,1183.02
2013-01-11,09:00,1121.18
2013-01-11,10:00,970.35
2013-01-11,11:00,922.61
2013-01-11,12:00,913.93
2013-01-11,13:00,1071.26
2013-01-11,14:00,-999
2013-01-11,15:00,-999
2013-01-11,16:00,-999
2013-01-11,17:00,-999
2013-01-11,18:00,1049.56
2013-01-11,19:00,1119
2013-01-11,20:00,1133.11
2013-01-11,21:00,1137.45
2013-01-11,22:00,1158.07
2013-01-11,23:00,1173.26
2013-01-12,00:00,1185.19
2013-01-12,01:00,1187.36
2013-01-12,02:00,1158.07
2013-01-12,03:00,1164.58
2013-01-12,04:00,1193.87
2013-01-12,05:00,1194.96
2013-01-12,06:00,1198.21
2013-01-12,07:00,1204.73
2013-01-12,08:00,1173.26
2013-01-12,09:00,1136.37
2013-01-12,10:00,1139.62
2013-01-12,11:00,1092.96
2013-01-12,12:00,-999
2013-01-12,13:00,-999
2013-01-12,14:00,-999
2013-01-12,15:00,-999
2013-01-12,16:00,-999
2013-01-12,17:00,-999
2013-01-12,18:00,-999
2013-01-12,19:00,-999
2013-01-12,20:00,-999
2013-01-12,21:00,901.99
2013-01-12,22:00,952.99
2013-01-12,23:00,945.39
2013-01-13,00:00,-999
2013-01-13,01:00,1152.64
2013-01-13,02:00,1185.19
2013-01-13,03:00,1202.56
2013-01-13,04:00,-999
2013-01-13,05:00,1198.21
2013-01-13,06:00,1193.87
2013-01-13,07:00,1179.77
2013-01-13,08:00,1099.47
2013-01-13,09:00,944.31
2013-01-13,10:00,872.69
2013-01-13,11:00,-999
2013-01-13,12:00,-999
2013-01-13,13:00,-999
2013-01-13,14:00,-999
2013-01-13,15:00,-999
2013-01-13,16:00,-999
2013-01-13,17:00,-999
2013-01-13,18:00,-999
2013-01-13,19:00,-999
2013-01-13,20:00,920.44
2013-01-13,21:00,990.97
2013-01-13,22:00,1028.94
2013-01-13,23:00,1070.18
2013-01-14,00:00,1124.43
2013-01-14,01:00,1134.2
2013-01-14,02:00,1158.07
2013-01-14,03:00,1151.56
2013-01-14,04:00,1181.94
2013-01-14,05:00,1170
2013-01-14,06:00,1192.79
2013-01-14,07:00,1194.96
2013-01-14,08:00,1113.58
2013-01-14,09:00,-999
2013-01-14,10:00,-999
2013-01-14,11:00,-999
2013-01-14,12:00,-999
2013-01-14,13:00,-999
2013-01-14,14:00,-999
2013-01-14,15:00,-999
2013-01-14,16:00,-999
2013-01-14,17:00,-999
2013-01-14,18:00,-999
2013-01-14,19:00,-999
2013-01-14,20:00,1124.43
2013-01-14,21:00,1070.18
2013-01-14,22:00,1149.39
2013-01-14,23:00,1166.75
2013-01-15,00:00,1174.34
2013-01-15,01:00,1200.39
2013-01-15,02:00,1200.39
2013-01-15,03:00,1180.85
2013-01-15,04:00,1194.96
2013-01-15,05:00,1202.56
2013-01-15,06:00,1197.13
2013-01-15,07:00,1159.15
2013-01-15,08:00,1110.32
2013-01-15,09:00,-999
2013-01-15,10:00,-999
2013-01-15,11:00,-999
2013-01-15,12:00,-999
2013-01-15,13:00,-999
2013-01-15,14:00,-999
2013-01-15,15:00,-999
2013-01-15,16:00,-999
2013-01-15,17:00,-999
2013-01-15,18:00,-999
2013-01-15,19:00,1105.98
2013-01-15,20:00,1132.03
2013-01-15,21:00,1181.94
2013-01-15,22:00,1167.83
2013-01-15,23:00,1194.96
2013-01-16,00:00,1198.21
2013-01-16,01:00,1200.39
2013-01-16,02:00,1191.7
2013-01-16,03:00,1162.41
2013-01-16,04:00,1168.92
2013-01-16,05:00,1179.77
2013-01-16,06:00,1180.85
2013-01-16,07:00,1174.34
2013-01-16,08:00,1137.45
2013-01-16,09:00,1094.05
2013-01-16,10:00,1019.18
2013-01-16,11:00,-999
2013-01-16,12:00,-999
2013-01-16,13:00,-999
2013-01-16,14:00,-999
2013-01-16,15:00,-999
2013-01-16,16:00,-999
2013-01-16,17:00,-999
2013-01-16,18:00,1000.73
2013-01-16,19:00,948.65
2013-01-16,20:00,1048.48
2013-01-16,21:00,1152.64
2013-01-16,22:00,1173.26
2013-01-16,23:00,1175.43
2013-01-17,00:00,1161.32
2013-01-17,01:00,1173.26
2013-01-17,02:00,1199.3
2013-01-17,03:00,1179.77
2013-01-17,04:00,1120.09
2013-01-17,05:00,1113.58
2013-01-17,06:00,1148.3
2013-01-17,07:00,1172.17
2013-01-17,08:00,1088.62
2013-01-17,09:00,-999
2013-01-17,10:00,-999
2013-01-17,11:00,-999
2013-01-17,12:00,-999
2013-01-17,13:00,-999
2013-01-17,14:00,-999
2013-01-17,15:00,-999
2013-01-17,16:00,-999
2013-01-17,17:00,-999
2013-01-17,18:00,-999
2013-01-17,19:00,-999
2013-01-17,20:00,-999
2013-01-17,21:00,-999
2013-01-17,22:00,-999
2013-01-17,23:00,-999
2013-01-18,00:00,984.46
2013-01-18,01:00,-999
2013-01-18,02:00,933.46
2013-01-18,03:00,905.25
2013-01-18,04:00,-999
2013-01-18,05:00,936.71
2013-01-18,06:00,981.2
2013-01-18,07:00,921.52
2013-01-18,08:00,-999
2013-01-18,09:00,-999
2013-01-18,10:00,-999
2013-01-18,11:00,-999
2013-01-18,12:00,-999
2013-01-18,13:00,-999
2013-01-18,14:00,-999
2013-01-18,15:00,-999
2013-01-18,16:00,-999
2013-01-18,17:00,-999
2013-01-18,18:00,-999
2013-01-18,19:00,-999
2013-01-18,20:00,-999
2013-01-18,21:00,-999
2013-01-18,22:00,-999
2013-01-18,23:00,858.59
2013-01-19,00:00,891.14
2013-01-19,01:00,918.27
2013-01-19,02:00,1044.14
2013-01-19,03:00,1045.22
2013-01-19,04:00,1101.64
2013-01-19,05:00,1104.9
2013-01-19,06:00,1130.94
2013-01-19,07:00,1134.2
2013-01-19,08:00,1092.96
2013-01-19,09:00,993.14
2013-01-19,10:00,-999
2013-01-19,11:00,-999
2013-01-19,12:00,-999
2013-01-19,13:00,-999
2013-01-19,14:00,-999
2013-01-19,15:00,-999
2013-01-19,16:00,-999
2013-01-19,17:00,-999
2013-01-19,18:00,-999
2013-01-19,19:00,852.08
2013-01-19,20:00,1014.84
2013-01-19,21:00,1121.18
2013-01-19,22:00,1170
2013-01-19,23:00,1183.02
2013-01-20,00:00,1187.36
2013-01-20,01:00,1177.6
2013-01-20,02:00,1193.87
2013-01-20,03:00,1188.45
2013-01-20,04:00,1184.11
2013-01-20,05:00,1134.2
2013-01-20,06:00,1177.6
2013-01-20,07:00,1181.94
2013-01-20,08:00,1156.98
2013-01-20,09:00,906.33
2013-01-20,10:00,-999
2013-01-20,11:00,-999
2013-01-20,12:00,-999
2013-01-20,13:00,-999
2013-01-20,14:00,-999
2013-01-20,15:00,-999
2013-01-20,16:00,-999
2013-01-20,17:00,-999
2013-01-20,18:00,-999
2013-01-20,19:00,922.61
2013-01-20,20:00,919.35
2013-01-20,21:00,1020.26
2013-01-20,22:00,1124.43
2013-01-20,23:00,1189.53
2013-01-21,00:00,1100.56
2013-01-21,01:00,1155.9
2013-01-21,02:00,1163.49
2013-01-21,03:00,1167.83
2013-01-21,04:00,1191.7
2013-01-21,05:00,1167.83
2013-01-21,06:00,1155.9
2013-01-21,07:00,1190.62
2013-01-21,08:00,1149.39
2013-01-21,09:00,858.59
2013-01-21,10:00,-999
2013-01-21,11:00,-999
2013-01-21,12:00,-999
2013-01-21,13:00,-999
2013-01-21,14:00,-999
2013-01-21,15:00,-999
2013-01-21,16:00,-999
2013-01-21,17:00,-999
2013-01-21,18:00,883.54
2013-01-21,19:00,948.65
2013-01-21,20:00,1062.58
2013-01-21,21:00,1056.07
2013-01-21,22:00,1159.15
2013-01-21,23:00,1152.64
2013-01-22,00:00,1176.51
2013-01-22,01:00,1162.41
2013-01-22,02:00,1141.79
2013-01-22,03:00,1176.51
2013-01-22,04:00,1188.45
2013-01-22,05:00,1205.81
2013-01-22,06:00,1178.68
2013-01-22,07:00,1185.19
2013-01-22,08:00,1168.92
2013-01-22,09:00,1026.77
2013-01-22,10:00,-999
2013-01-22,11:00,-999
2013-01-22,12:00,-999
2013-01-22,13:00,-999
2013-01-22,14:00,-999
2013-01-22,15:00,-999
2013-01-22,16:00,-999
2013-01-22,17:00,-999
2013-01-22,18:00,984.46
2013-01-22,19:00,1047.39
2013-01-22,20:00,1081.03
2013-01-22,21:00,1134.2
2013-01-22,22:00,1148.3
2013-01-22,23:00,1134.2
2013-01-23,00:00,1178.68
2013-01-23,01:00,1165.66
2013-01-23,02:00,1189.53
2013-01-23,03:00,1203.64
2013-01-23,04:00,1193.87
2013-01-23,05:00,1171.09
2013-01-23,06:00,1163.49
2013-01-23,07:00,1190.62
2013-01-23,08:00,1184.11
2013-01-23,09:00,1177.6
2013-01-23,10:00,1149.39
2013-01-23,11:00,1107.07
2013-01-23,12:00,925.86
2013-01-23,13:00,929.12
2013-01-23,14:00,-999
2013-01-23,15:00,-999
2013-01-23,16:00,-999
2013-01-23,17:00,-999
2013-01-23,18:00,1099.47
2013-01-23,19:00,1153.73
2013-01-23,20:00,1166.75
2013-01-23,21:00,1199.3
2013-01-23,22:00,1189.53
2013-01-23,23:00,1201.47
2013-01-24,00:00,1205.81
2013-01-24,01:00,1192.79
2013-01-24,02:00,1088.62
2013-01-24,03:00,1168.92
2013-01-24,04:00,1178.68
2013-01-24,05:00,1147.22
2013-01-24,06:00,1149.39
2013-01-24,07:00,1094.05
2013-01-24,08:00,1154.81
2013-01-24,09:00,1149.39
2013-01-24,10:00,1133.11
2013-01-24,11:00,1129.86
2013-01-24,12:00,1088.62
2013-01-24,13:00,1084.28
2013-01-24,14:00,1073.43
2013-01-24,15:00,1006.16
2013-01-24,16:00,986.63
2013-01-24,17:00,1017.01
2013-01-24,18:00,1127.69
2013-01-24,19:00,1149.39
2013-01-24,20:00,1185.19
2013-01-24,21:00,1151.56
2013-01-24,22:00,1176.51
2013-01-24,23:00,1194.96
2013-01-25,00:00,1198.21
2013-01-25,01:00,1194.96
2013-01-25,02:00,1188.45
2013-01-25,03:00,1191.7
2013-01-25,04:00,1191.7
2013-01-25,05:00,1165.66
2013-01-25,06:00,1168.92
2013-01-25,07:00,1154.81
2013-01-25,08:00,1174.34
2013-01-25,09:00,1168.92
2013-01-25,10:00,1146.13
2013-01-25,11:00,1133.11
2013-01-25,12:00,1158.07
2013-01-25,13:00,1107.07
2013-01-25,14:00,990.97
2013-01-25,15:00,1045.22
2013-01-25,16:00,1099.47
2013-01-25,17:00,1105.98
2013-01-25,18:00,1133.11
2013-01-25,19:00,1163.49
2013-01-25,20:00,1186.28
2013-01-25,21:00,1187.36
2013-01-25,22:00,1193.87
2013-01-25,23:00,1192.79
2013-01-26,00:00,1194.96
2013-01-26,01:00,1199.3
2013-01-26,02:00,1200.39
2013-01-26,03:00,1193.87
2013-01-26,04:00,1193.87
2013-01-26,05:00,1198.21
2013-01-26,06:00,1198.21
2013-01-26,07:00,1199.3
2013-01-26,08:00,1196.04
2013-01-26,09:00,1178.68
2013-01-26,10:00,1176.51
2013-01-26,11:00,1133.11
2013-01-26,12:00,1154.81
2013-01-26,13:00,1156.98
2013-01-26,14:00,1119
2013-01-26,15:00,873.78
2013-01-26,16:00,1030.03
2013-01-26,17:00,1086.45
2013-01-26,18:00,1153.73
2013-01-26,19:00,1146.13
2013-01-26,20:00,1164.58
2013-01-26,21:00,1174.34
2013-01-26,22:00,1189.53
2013-01-26,23:00,1197.13
2013-01-27,00:00,1200.39
2013-01-27,01:00,1200.39
2013-01-27,02:00,1198.21
2013-01-27,03:00,1189.53
2013-01-27,04:00,899.82
2013-01-27,05:00,1179.77
2013-01-27,06:00,1186.28
2013-01-27,07:00,1186.28
2013-01-27,08:00,1178.68
2013-01-27,09:00,1150.47
2013-01-27,10:00,1153.73
2013-01-27,11:00,1146.13
2013-01-27,12:00,1150.47
2013-01-27,13:00,1154.81
2013-01-27,14:00,1099.47
2013-01-27,15:00,1082.11
2013-01-27,16:00,1007.24
2013-01-27,17:00,1005.07
2013-01-27,18:00,1150.47
2013-01-27,19:00,1168.92
2013-01-27,20:00,1172.17
2013-01-27,21:00,1184.11
2013-01-27,22:00,1176.51
2013-01-27,23:00,1188.45
2013-01-28,00:00,1196.04
2013-01-28,01:00,1201.47
2013-01-28,02:00,1197.13
2013-01-28,03:00,1197.13
2013-01-28,04:00,1197.13
2013-01-28,05:00,1196.04
2013-01-28,06:00,1180.85
2013-01-28,07:00,1186.28
2013-01-28,08:00,1194.96
2013-01-28,09:00,-999
2013-01-28,10:00,-999
2013-01-28,11:00,-999
2013-01-28,12:00,-999
2013-01-28,13:00,-999
2013-01-28,14:00,-999
2013-01-28,15:00,-999
2013-01-28,16:00,-999
2013-01-28,17:00,-999
2013-01-28,18:00,-999
2013-01-28,19:00,-999
2013-01-28,20:00,-999
2013-01-28,21:00,-999
2013-01-28,22:00,-999
2013-01-28,23:00,-999
2013-01-29,00:00,1185.19
2013-01-29,01:00,1188.45
2013-01-29,02:00,1188.45
2013-01-29,03:00,1187.36
2013-01-29,04:00,1189.53
2013-01-29,05:00,1192.79
2013-01-29,06:00,1194.96
2013-01-29,07:00,1192.79
2013-01-29,08:00,1175.43
2013-01-29,09:00,1151.56
2013-01-29,10:00,1107.07
2013-01-29,11:00,1130.94
2013-01-29,12:00,969.27
2013-01-29,13:00,1107.07
2013-01-29,14:00,856.42
2013-01-29,15:00,884.63
2013-01-29,16:00,-999
2013-01-29,17:00,983.37
2013-01-29,18:00,1129.86
2013-01-29,19:00,1122.26
2013-01-29,20:00,1138.54
2013-01-29,21:00,-999
2013-01-29,22:00,1010.5
2013-01-29,23:00,1082.11
2013-01-30,00:00,1102.73
2013-01-30,01:00,1119
2013-01-30,02:00,1134.2
2013-01-30,03:00,1139.62
2013-01-30,04:00,1149.39
2013-01-30,05:00,1138.54
2013-01-30,06:00,1150.47
2013-01-30,07:00,1145.05
2013-01-30,08:00,1154.81
2013-01-30,09:00,1127.69
2013-01-30,10:00,1160.24
2013-01-30,11:00,1140.71
2013-01-30,12:00,1057.16
2013-01-30,13:00,1025.69
2013-01-30,14:00,983.37
2013-01-30,15:00,-999
2013-01-30,16:00,-999
2013-01-30,17:00,908.5
2013-01-30,18:00,1091.88
2013-01-30,19:00,1124.43
2013-01-30,20:00,1176.51
2013-01-30,21:00,1175.43
2013-01-30,22:00,1136.37
2013-01-30,23:00,1178.68
2013-01-31,00:00,1153.73
2013-01-31,01:00,1150.47
2013-01-31,02:00,1149.39
2013-01-31,03:00,1161.32
2013-01-31,04:00,1166.75
2013-01-31,05:00,1172.17
2013-01-31,06:00,1165.66
2013-01-31,07:00,1110.32
2013-01-31,08:00,1132.03
2013-01-31,09:00,1083.2
2013-01-31,10:00,1041.96
2013-01-31,11:00,1064.75
2013-01-31,12:00,1145.05
2013-01-31,13:00,1063.67
2013-01-31,14:00,-999
2013-01-31,15:00,988.8
2013-01-31,16:00,-999
2013-01-31,17:00,871.61
2013-01-31,18:00,1170
2013-01-31,19:00,1165.66
2013-01-31,20:00,1164.58
2013-01-31,21:00,-999
2013-01-31,22:00,-999
2013-01-31,23:00,-999
